TimeMST,TemperatureF,Dew PointF,Humidity,Sea Level PressureIn,VisibilityMPH,Wind Direction,Wind SpeedMPH,Gust SpeedMPH,PrecipitationIn,Events,Conditions,WindDirDegrees,DateUTC
12:53 AM,28.9,21.9,75,29.86,10.0,North,24.2,34.5,N/A,,Overcast,350,2013-02-26 07:53:00
1:53 AM,28.0,24.1,85,29.85,10.0,NNW,23.0,29.9,N/A,,Overcast,340,2013-02-26 08:53:00
2:53 AM,28.0,21.0,75,29.86,10.0,NNW,23.0,35.7,N/A,,Overcast,340,2013-02-26 09:53:00
3:53 AM,28.0,19.0,69,29.88,10.0,NW,24.2,36.8,N/A,,Overcast,320,2013-02-26 10:53:00
4:53 AM,28.0,19.0,69,29.90,10.0,NNW,23.0,29.9,N/A,,Overcast,330,2013-02-26 11:53:00
5:53 AM,28.0,19.0,69,29.94,10.0,NW,26.5,35.7,N/A,,Overcast,320,2013-02-26 12:53:00
6:53 AM,27.0,18.0,69,29.99,10.0,NNW,23.0,29.9,N/A,,Overcast,340,2013-02-26 13:53:00
7:53 AM,27.0,17.1,66,30.02,10.0,NNW,21.9,32.2,N/A,,Overcast,330,2013-02-26 14:53:00
8:53 AM,28.0,17.1,63,30.01,10.0,NNW,25.3,35.7,N/A,,Scattered Clouds,330,2013-02-26 15:53:00
9:53 AM,30.0,15.1,54,30.01,10.0,NNW,27.6,38.0,N/A,,Clear,330,2013-02-26 16:53:00
10:53 AM,30.0,17.1,59,30.02,10.0,NNW,28.8,36.8,N/A,,Overcast,340,2013-02-26 17:53:00
11:53 AM,30.0,16.0,56,30.04,10.0,NNW,28.8,39.1,N/A,,Overcast,340,2013-02-26 18:53:00
12:53 PM,30.0,17.1,59,30.04,10.0,North,27.6,36.8,N/A,,Partly Cloudy,350,2013-02-26 19:53:00
1:53 PM,30.0,17.1,59,30.06,10.0,North,21.9,35.7,N/A,,Clear,350,2013-02-26 20:53:00
2:53 PM,30.0,17.1,59,30.08,10.0,NNW,23.0,-,N/A,,Clear,340,2013-02-26 21:53:00
3:53 PM,30.9,17.1,57,30.11,10.0,NNW,19.6,26.5,N/A,,Clear,340,2013-02-26 22:53:00
4:53 PM,28.9,17.1,61,30.13,10.0,North,10.4,-,N/A,,Clear,350,2013-02-26 23:53:00
5:53 PM,25.0,15.1,66,30.17,10.0,NNW,5.8,-,N/A,,Clear,340,2013-02-27 00:53:00
6:53 PM,28.0,15.1,58,30.18,10.0,NNW,15.0,26.5,N/A,,Scattered Clouds,330,2013-02-27 01:53:00
7:53 PM,28.0,16.0,61,30.20,10.0,NNW,15.0,24.2,N/A,,Overcast,330,2013-02-27 02:53:00
8:09 PM,28.4,21.2,74,30.11,1.8,NW,20.7,32.2,0.00,Snow,Light Snow,320,2013-02-27 03:09:00
8:35 PM,26.6,21.2,80,30.12,3.0,NNW,15.0,25.3,0.00,Snow,Light Snow,330,2013-02-27 03:35:00
8:51 PM,26.6,21.2,80,30.12,10.0,NNW,15.0,-,0.00,,Overcast,330,2013-02-27 03:51:00
8:53 PM,26.1,21.0,81,30.22,10.0,NNW,13.8,-,0.00,,Overcast,330,2013-02-27 03:53:00
9:53 PM,27.0,21.0,78,30.22,10.0,NW,13.8,-,0.00,,Overcast,320,2013-02-27 04:53:00
10:53 PM,23.0,18.0,81,30.25,10.0,NW,4.6,-,N/A,,Partly Cloudy,320,2013-02-27 05:53:00
11:53 PM,21.9,17.1,82,30.25,10.0,NNW,4.6,-,N/A,,Partly Cloudy,330,2013-02-27 06:53:00